Regional Weather Roundup
Issued by NWS

Home | Current Version | Previous Version | Graphics & Text | Print | Product List | Glossary On
Versions: 1 2 3 4 5 6 7 8 9 10 11 12 13 14 15 16 17 18 19 20 21 22 23 24 25 26 27 28 29 30 31 32 33 34 35 36 37 38 39 40 41 42 43 44 45 46 47 48 49 50
000
ASUS43 KMPX 300010
RWRMN
WEATHER ROUNDUP FOR MINNESOTA
NATIONAL WEATHER SERVICE TWIN CITIES/CHANHASSEN MN
700 PM CDT SAT APR 29 2017


NOTE: "FAIR" INDICATES FEW OR NO CLOUDS BELOW 12,000 FEET WITH NO
SIGNIFICANT WEATHER AND/OR OBSTRUCTIONS TO VISIBILITY. N/A MEANS
CURRENT SKY AND/OR WEATHER CONDITIONS ARE NOT AVAILABLE.

MNZ060>063-068>070-300100-
   Twin Cities Metro

CITY           SKY/WX    TMP DP  RH WIND       PRES   REMARKS
TWIN CITIES    CLOUDY    54  21  27 NE22G28   30.11F
6HR MIN TEMP:  51; 6HR MAX TEMP:  56;

ST PAUL        CLOUDY    54  24  31 NE18G26   30.12F
CRYSTAL        CLOUDY    53  19  26 NE14G25   30.11F
BLAINE         CLOUDY    55  21  26 NE20G30   30.12F
LAKEVILLE      PTSUNNY   50  27  40 NE13G22   30.11F
EDEN PRAIRIE   CLOUDY    54  22  28 NE15G24   30.10F
6HR MIN TEMP:  52; 6HR MAX TEMP:  56;

SOUTH ST PAUL  CLOUDY    54  23  30 NE10G21   30.11F
LAKE ELMO      FAIR      54  28  37 NE14G22   30.13F
$$
MNZ001>005-007-008-013>017-022>024-027-028-300100-
   Northwest Minnesota

CITY           SKY/WX    TMP DP  RH WIND       PRES   REMARKS
BEMIDJI        SUNNY     55  21  26 N5        30.23F
HALLOCK        SUNNY     61  16  17 S5        30.23F
ROSEAU         SUNNY     57  25  28 N3        30.24F
WARROAD        SUNNY     48  27  43 E8        30.26F
THIEF RVR FALL SUNNY     57  19  22 CALM      30.24F
CROOKSTON      SUNNY     59  21  23 E3        30.24F
FOSSTON        SUNNY     59  23  25 N6        30.23F
DETROIT LAKES  SUNNY     55  27  33 NE5       30.20F
MOORHEAD       SUNNY     57  21  24 NE10      30.21F
PARK RAPIDS    SUNNY     55  18  23 NE14      30.20F
MAHNOMEN       FAIR      55  28  35 N8        30.21F
$$
MNZ006-009>011-018-025>026-300100-
   North Central Minnesota

CITY           SKY/WX    TMP DP  RH WIND       PRES   REMARKS
BAUDETTE       SUNNY     56  19  23 N7        30.24F
FLAG ISLAND    SUNNY     52  12  20 CALM      30.25F
INTL FALLS     SUNNY     53  18  25 NE7       30.26F
6HR MIN TEMP:  51; 6HR MAX TEMP:  55;

WASKISH        SUNNY     52  27  37 W6        30.25F
BIG FORK       SUNNY     55  18  22 E5        30.24F
LONGVILLE      SUNNY     55  18  22 N5        30.22F
GRAND RAPIDS   SUNNY     54  17  23 MISG      30.25F
CRANE LAKE     SUNNY     54   9  16 NE3       30.29F
ORR            SUNNY     55   7  14 CALM      30.23F
COOK           SUNNY     54  16  22 E3        30.26F
WALKER         FAIR      53  20  27 E5        30.22F
$$
MNZ012-019>021-037-300100-
   Northeast Minnesota

CITY           SKY/WX    TMP DP  RH WIND       PRES   REMARKS
DULUTH         MOSUNNY   43  19  38 E14       30.27F
6HR MIN TEMP:  43; 6HR MAX TEMP:  48;

ELY            SUNNY     52   7  16 CALM      30.26F
HIBBING        SUNNY     53  17  24 NE9       30.24F
EVELETH        CLOUDY    53  12  19 E7        30.26F
DULUTH HARBOR  CLOUDY    39  30  70 NE14      30.30F
TWO HARBORS    MOSUNNY   45  23  42 E10       30.28F
SILVER BAY     MOSUNNY   43  18  36 NE6       30.29F
GRAND MARAIS     N/A     38  29  70 CALM      30.33F
G MARAIS ARPRT SUNNY     43  12  28 SE3       30.31F
$$
MNZ029>031-032-039>041-046>048-054>057-064-300100-
   West Central Minnesota

CITY           SKY/WX    TMP DP  RH WIND       PRES   REMARKS
FERGUS FALLS   SUNNY     55  25  30 NE6       30.17F
WHEATON        CLOUDY    55  18  22 NE12G17   30.21R
MORRIS         MOSUNNY   55  25  30 NE14      30.16F
ALEXANDRIA     CLOUDY    54  21  27 NE16G23   30.17F
ELBOW LAKE     FAIR      54  26  34 NE10      30.19F
WADENA         CLOUDY    54  25  32 NE10      30.18F
GLENWOOD       MOSUNNY   54  25  32 NE14      30.17S
APPLETON       CLOUDY    55  19  24 NE14G20   30.18R
BENSON         CLOUDY    57  10  15 E10       30.18S
ORTONVILLE     CLOUDY    55  23  28 NE10G18   30.18S
MADISON        PTSUNNY   57  23  26 NE13      30.18R
WILLMAR        FAIR      54  27  35 NE13      30.18R
$$
MNZ033>034-036-042>043-049>051-058-059-300100-
   Central Minnesota

CITY           SKY/WX    TMP DP  RH WIND       PRES   REMARKS
ST CLOUD       MOSUNNY   53  17  24 NE16G26   30.14F
6HR MIN TEMP:  50; 6HR MAX TEMP:  56;

SAUK CENTRE    FAIR      52  24  33 NE13      30.16F
PAYNESVILLE    CLOUDY    52  22  30 NE15G21   30.16S
AITKIN         CLOUDY    57   9  14 NE12      30.18F
PINE RIVER     SUNNY     55  27  33 N8G18     30.22F
BRAINERD       SUNNY     53  19  26 NE10      30.19F
STAPLES        SUNNY     55  18  22 NE7       30.18F
LONG PRAIRIE   FAIR      52  21  30 N12G20    30.17F
LITTLE FALLS   MOSUNNY   52  21  30 NE6       30.17F
LITCHFIELD     PTSUNNY   54  25  32 NE13G25   30.14F
BUFFALO        CLOUDY    53  22  29 NE14G24   30.14F
MAPLE LAKE     CLOUDY    54  24  32 NE16      30.14F
HUTCHINSON     SUNNY     53  25  34 NE12G21   30.15R
$$
MNZ037-044-045-052-053-300100-
   East Central Minnesota

CITY           SKY/WX    TMP DP  RH WIND       PRES   REMARKS
PRINCETON      CLOUDY    54  19  26 N18G24    30.15F
MORA           PTSUNNY   50  14  23 NE7G17    30.19F
CAMBRIDGE      MOSUNNY   54  30  40 NE10G23   30.12F
RUSH CITY      CLOUDY    51  27  38 NE16G23   30.16F
MOOSE LAKE     CLOUDY    48  19  32 E10G17    30.22F
HINCKLEY       FAIR      52  18  25 NE13G21   30.19F
CLOQUET        CLOUDY    43  12  28 E12G20    30.26F
MCGREGOR       CLOUDY    52  23  32 E12       30.22F
$$
MNZ071>073-080-081-089-090-097-098-300100-
   Southwest Minnesota

CITY           SKY/WX    TMP DP  RH WIND       PRES   REMARKS
MONTEVIDEO     CLOUDY    54  21  28 E18G25    30.17R
GRANITE FALLS  CLOUDY    55  26  33 NE9G22    30.18R
CANBY          CLOUDY    54  22  28 E14G23    30.18R
MARSHALL       CLOUDY    52  24  33 NE17      30.15R
REDWOOD FALLS  CLOUDY    53  20  27 NE13G21   30.16R
OLIVIA         PTSUNNY   54  27  35 NE13G18   30.15R
PIPESTONE      CLOUDY    52  14  22 NE15G24   30.12R
WINDOM         PTSUNNY   50  21  32 NE15G24   30.12R
WORTHINGTON    CLOUDY    48  24  39 NE22      30.11R
JACKSON        CLOUDY    46  27  46 NE18G25   30.11S
TRACY          PTSUNNY   52  25  35 NE15      30.14R
SLAYTON        CLOUDY    49  22  35 NE12G21   30.13R
$$
MNZ065>067-074>077-082>085-091>093-300100-
   South Central Minnesota

CITY           SKY/WX    TMP DP  RH WIND       PRES   REMARKS
MANKATO        PTSUNNY   51  27  39 NE10G23   30.14R
NEW ULM        CLOUDY    52  19  28 NE15      30.13R
ST JAMES       CLOUDY    52  25  35 NE10G16   30.15R
FAIRMONT       CLOUDY    49  28  44 NE17      30.11R
GLENCOE        CLOUDY    53  25  33 NE13      30.13R
FARIBAULT      PTSUNNY   52  27  37 NE13G22   30.13R
OWATONNA       CLOUDY    50  28  43 NE14      30.13R
WASECA         CLOUDY    50  30  46 NE12G20   30.14R
ALBERT LEA     PTSUNNY   48  27  43 NE15G24   30.12R
$$
MNZ078>079-086>088-094>096-300100-
   Southeast Minnesota

CITY           SKY/WX    TMP DP  RH WIND       PRES   REMARKS
ROCHESTER      CLOUDY    47  30  51 NE22      30.10F
6HR MIN TEMP:  44; 6HR MAX TEMP:  48;

RED WING       PTSUNNY   54  21  28 E14       30.11F
STANTON        PTSUNNY   53  29  39 NE14      30.09F
DODGE CENTER   PTSUNNY   48  28  46 NE20G26   30.11R
WINONA         CLOUDY    50  32  50 E9        30.13R
AUSTIN         CLOUDY    48  30  49 NE14G24   30.12R
PRESTON        CLOUDY    46  29  51 NE14G23   30.09S
$$
ABBREVIATIONS USED IN REMARKS
   TC - TEMPERATURES IN CELSIUS
  WCI - WIND CHILL INDEX
   HX - HEAT INDEX
  VSB - VISIBILITY
$$




USA.gov is the U.S. government's official web portal to all federal, state and local government web resources and services.